TimeAKDT,TemperatureF,Dew PointF,Humidity,Sea Level PressureIn,VisibilityMPH,Wind Direction,Wind SpeedMPH,Gust SpeedMPH,PrecipitationIn,Events,Conditions,WindDirDegrees,DateUTC
12:02 AM,3.2,-2.2,78,29.72,2.0,Calm,Calm,-,0.00,Snow,Light Snow,0,2012-11-03 08:02:00
12:28 AM,3.2,-2.2,78,29.72,2.5,Calm,Calm,-,0.00,Snow,Light Snow,0,2012-11-03 08:28:00
12:53 AM,3.0,-2.9,76,29.80,3.0,Calm,Calm,-,0.00,Snow,Light Snow,0,2012-11-03 08:53:00
1:53 AM,3.0,-2.0,80,29.79,4.0,Calm,Calm,-,0.00,Snow,Light Snow,0,2012-11-03 09:53:00
2:25 AM,3.2,-2.2,78,29.72,2.5,Calm,Calm,-,0.00,Snow,Light Snow,0,2012-11-03 10:25:00
2:35 AM,1.4,-2.2,85,29.72,3.0,Calm,Calm,-,0.00,Snow,Light Snow,0,2012-11-03 10:35:00
2:53 AM,3.0,-2.0,80,29.79,4.0,Calm,Calm,-,0.00,Snow,Light Snow,0,2012-11-03 10:53:00
3:53 AM,3.0,-2.0,80,29.79,4.0,Calm,Calm,-,0.00,Snow,Light Snow,0,2012-11-03 11:53:00
4:53 AM,1.9,-2.0,83,29.79,8.0,Calm,Calm,-,0.00,,Overcast,0,2012-11-03 12:53:00
5:53 AM,3.0,-2.0,80,29.79,9.0,Calm,Calm,-,N/A,,Overcast,0,2012-11-03 13:53:00
6:53 AM,3.0,-2.0,80,29.80,4.0,NNE,3.5,-,0.00,Snow,Light Snow,20,2012-11-03 14:53:00
7:53 AM,3.9,-2.0,76,29.80,10.0,Calm,Calm,-,0.00,,Overcast,0,2012-11-03 15:53:00
8:53 AM,3.9,-2.0,76,29.81,3.0,Calm,Calm,-,0.00,Snow,Light Snow,0,2012-11-03 16:53:00
9:03 AM,3.2,-2.2,78,29.74,2.5,Calm,Calm,-,0.00,Snow,Light Snow,0,2012-11-03 17:03:00
9:26 AM,3.2,-0.4,85,29.74,1.5,Calm,Calm,-,0.00,Snow,Light Snow,0,2012-11-03 17:26:00
9:45 AM,5.0,-0.4,78,29.74,2.5,Calm,Calm,-,0.00,Snow,Light Snow,0,2012-11-03 17:45:00
9:53 AM,5.0,-0.9,76,29.81,3.0,Calm,Calm,-,0.00,Snow,Light Snow,0,2012-11-03 17:53:00
10:13 AM,5.0,-0.4,78,29.75,2.5,Calm,Calm,-,0.00,Snow,Light Snow,0,2012-11-03 18:13:00
10:35 AM,5.0,-0.4,78,29.75,1.8,Calm,Calm,-,0.00,Snow,Light Snow,0,2012-11-03 18:35:00
10:53 AM,5.0,-0.9,76,29.82,1.5,NNE,3.5,-,0.00,Snow,Light Snow,20,2012-11-03 18:53:00
11:28 AM,6.8,-0.4,72,29.76,2.0,Calm,Calm,-,0.00,Snow,Light Snow,0,2012-11-03 19:28:00
11:53 AM,6.1,-0.0,76,29.83,2.5,Calm,Calm,-,0.00,Snow,Light Snow,0,2012-11-03 19:53:00
12:10 PM,6.8,-0.4,72,29.76,3.0,Calm,Calm,-,0.00,Snow,Light Snow,0,2012-11-03 20:10:00
12:33 PM,6.8,-0.4,72,29.77,2.5,Calm,Calm,-,0.00,Snow,Light Snow,0,2012-11-03 20:33:00
12:53 PM,7.0,-0.0,73,29.84,2.0,Calm,Calm,-,0.00,Snow,Light Snow,0,2012-11-03 20:53:00
1:04 PM,6.8,-0.4,72,29.77,2.0,Calm,Calm,-,0.00,Snow,Light Snow,0,2012-11-03 21:04:00
1:12 PM,6.8,1.4,79,29.77,1.8,Calm,Calm,-,0.00,Snow,Light Snow,0,2012-11-03 21:12:00
1:42 PM,6.8,1.4,79,29.77,2.0,Calm,Calm,-,0.00,Snow,Light Snow,0,2012-11-03 21:42:00
1:53 PM,7.0,1.0,77,29.84,2.0,Calm,Calm,-,0.00,Snow,Light Snow,0,2012-11-03 21:53:00
1:58 PM,6.8,1.4,79,29.77,1.8,Calm,Calm,-,0.00,Snow,Light Snow,0,2012-11-03 21:58:00
2:53 PM,7.0,1.0,77,29.83,1.5,Calm,Calm,-,0.01,Snow,Light Snow,0,2012-11-03 22:53:00
3:09 PM,6.8,1.4,79,29.76,2.0,Calm,Calm,-,0.00,Snow,Light Snow,0,2012-11-03 23:09:00
3:32 PM,6.8,1.4,79,29.75,4.0,Calm,Calm,-,0.00,Snow,Light Snow,0,2012-11-03 23:32:00
3:53 PM,7.0,1.0,77,29.83,8.0,Calm,Calm,-,0.00,,Overcast,0,2012-11-03 23:53:00
4:15 PM,6.8,1.4,79,29.76,10.0,Calm,Calm,-,N/A,,Scattered Clouds,0,2012-11-04 00:15:00
4:53 PM,3.0,-0.9,84,29.83,10.0,Calm,Calm,-,N/A,,Clear,0,2012-11-04 00:53:00
5:53 PM,-2.9,-8.0,79,29.84,10.0,Calm,Calm,-,N/A,,Clear,0,2012-11-04 01:53:00
6:53 PM,-6.0,-11.0,79,29.85,10.0,Calm,Calm,-,N/A,,Mostly Cloudy,0,2012-11-04 02:53:00
7:53 PM,-9.0,-14.1,79,29.85,10.0,Calm,Calm,-,N/A,,Clear,0,2012-11-04 03:53:00
8:53 PM,-9.9,-15.0,78,29.85,10.0,Calm,Calm,-,N/A,,Clear,0,2012-11-04 04:53:00
9:53 PM,-11.0,-16.1,78,29.86,10.0,Calm,Calm,-,N/A,,Clear,0,2012-11-04 05:53:00
10:53 PM,-13.0,-18.9,75,29.85,10.0,Calm,Calm,-,N/A,,Clear,0,2012-11-04 06:53:00
11:29 PM,-13.0,-18.4,77,29.77,10.0,Calm,Calm,-,N/A,,Scattered Clouds,0,2012-11-04 07:29:00
11:53 PM,-13.0,-18.0,78,29.85,10.0,Calm,Calm,-,N/A,,Scattered Clouds,0,2012-11-04 07:53:00